Regional Weather Roundup
Issued by NWS

Home | Current Version | Previous Version | Text Only | Print | Product List | Glossary On
Versions: 1 2 3 4 5 6 7 8 9 10 11 12 13 14 15 16 17 18 19 20 21 22 23 24 25 26 27 28 29 30 31 32 33 34 35 36 37 38 39 40 41 42 43 44 45 46 47 48 49 50
000
ASUS44 KJAN 012010
RWRMS

MISSISSIPPI HOURLY WEATHER ROUNDUP
NATIONAL WEATHER SERVICE JACKSON MS
200 PM CST SUN FEB 01 2015

NOTE: "FAIR: INDICATES FEW OR NO CLOUDS BELOW 12,000 FEET WITH NO
SIGNIFICANT WEATHER AND/OR OBSTRUCTIONS TO VISIBILITY.

MSZ001>002-007>008-010>013-018>021-025>028-034>036-012100-
NORTHWEST MISSISSIPPI

CITY           SKY/WX    TMP DP  RH WIND       PRES   REMARKS
CLARKSDALE     CLOUDY    59  59 100 SW14G21   29.74F VSB 1/2
CLEVELAND      CLOUDY    62  60  92 SW18      29.75F
GREENWOOD      CLOUDY    64  57  78 SW14      29.77F
GREENVILLE     CLOUDY    65  58  78 SW20G30   29.74F
GRENADA        CLOUDY    63  55  77 SW7       29.76F
OLIVE BRANCH   RAIN      55  55 100 SW14      29.68F FOG
OXFORD         CLOUDY    55  54  94 S7        29.75F
TUNICA         HVY RAIN  57  55  94 SW17      29.72F
$$

MSZ003>006-009-014>017-022>024-029>033-037>039-012100-
NORTHEAST MISSISSIPPI

CITY           SKY/WX    TMP DP  RH WIND       PRES   REMARKS
COLUMBUS AFB   CLOUDY    56  52  88 S17       29.82F
CORINTH        CLOUDY    54  52  94 S16       29.73F FOG
GOLDN TRIANGLE PTSUNNY   57  52  82 MISG      29.83F
STARKVILLE     CLOUDY    59  55  88 S9        29.81F
TUPELO         CLOUDY    52  49  89 S14       29.78F
$$

MSZ040-058-012100-
CENTRAL MISSISSIPPI

CITY           SKY/WX    TMP DP  RH WIND       PRES   REMARKS
JACKSON INTL   PTSUNNY   70  59  68 S9        29.83F
JACKSON HAWKNS MOSUNNY   71  59  65 SW13      29.83F
MERIDIAN KEY   CLOUDY    63  57  81 S13       29.87F
MERIDIAN NAS   CLOUDY    64  57  78 VRB6      29.87F
RAYMOND        MOCLDY    72  66  83 SW10      29.82F
VICKSBURG      PTSUNNY   71  58  63 SW14G22   29.81F
$$

MSZ059>079-012100-
SOUTH MISSISSIPPI

CITY           SKY/WX    TMP DP  RH WIND       PRES   REMARKS
BROOKHAVEN     MOCLDY    68  59  73 S14G21    29.88F
HATTIESBURG    PTSUNNY   73  59  61 SW15      29.89F
MCCOMB         LGT RAIN  63  61  93 SW10      29.90F
NATCHEZ        PTSUNNY   70  59  68 SW10G20   29.84F
PINE BELT      CLOUDY    68  57  68 SW10G16   29.90F
$$

MSZ080>082-012100-
COASTAL MISSISSIPPI

CITY           SKY/WX    TMP DP  RH WIND       PRES   REMARKS
BAY ST LOUIS   PTSUNNY   72  59  64 S9        29.92F
BILOXI         PTSUNNY   66  63  90 SW10      29.93F
PASCAGOULA     PTSUNNY   67  64  90 S7        29.93F
GULFPORT       MOSUNNY   67  62  84 SW8       29.92F
$$



USA.gov is the U.S. government's official web portal to all federal, state and local government web resources and services.